Regional Weather Roundup
Issued by NWS

Home | Current Version | Previous Version | Text Only | Print | Product List | Glossary On
Versions: 1 2 3 4 5 6 7 8 9 10 11 12 13 14 15 16 17 18 19 20 21 22 23 24 25 26 27
000
ASUS45 KBOI 260610
RWRID

IDAHO REGIONAL WEATHER ROUNDUP
NATIONAL WEATHER SERVICE BOISE ID
1200 AM MDT TUE SEP 26 2017

NOTE: "FAIR" INDICATES FEW OR NO CLOUDS BELOW 12000 FEET
WITH NO SIGNIFICANT WEATHER AND/OR OBSTRUCTIONS TO VISIBILITY

IDZ012-014-260700-
SOUTHWEST IDAHO


CITY           SKY/WX    TMP DP  RH WIND       PRES   REMARKS
BOISE          MOCLDY    55  38  52 SE5       30.09R
CALDWELL       PTCLDY    55  43  63 CALM      30.09R
MOUNTAIN HOME  PTCLDY    48  35  60 E3        30.10R
$$

IDZ016-017-260700-
SOUTHCENTRAL IDAHO


CITY           SKY/WX    TMP DP  RH WIND       PRES   REMARKS
BURLEY         PTCLDY    41  35  79 S3        30.13R
JEROME         PTCLDY    43  33  68 CALM      30.13S
TWIN FALLS     PTCLDY    42  34  73 S8        30.13S
$$

IDZ019>023-260700-
SOUTHEAST IDAHO


CITY           SKY/WX    TMP DP  RH WIND       PRES   REMARKS
IDAHO FALLS    CLOUDY    45  35  68 CALM      30.15R
POCATELLO      MOCLDY    45  35  68 E3        30.14S
REXBURG        CLOUDY    45  32  60 VRB3      30.14S
$$

IDZ006-010-011-018-031-032-260700-
CENTRAL IDAHO MOUNTAINS


CITY           SKY/WX    TMP DP  RH WIND       PRES   REMARKS
MCCALL         CLOUDY    50  37  61 N5        30.14R
HAILEY         CLOUDY    41  34  75 NW7       30.18S
STANLEY          N/A     42  32  67 CALM      30.19S
SALMON         CLOUDY    47  42  83 CALM      30.16R
CHALLIS        CLOUDY    48  36  63 NW6       30.16R
$$

IDZ002-004-006-007-026-260700-
NORTHERN IDAHO


CITY           SKY/WX    TMP DP  RH WIND       PRES   REMARKS
LEWISTON       CLOUDY    63  47  55 E3        30.08R
LOWELL           N/A     51  48  89 CALM      30.15R
COEUR D`ALENE  PTCLDY    49  46  90 CALM      30.10R
MULLAN PASS    MOCLDY    42  37  82 NW6       30.16R
$$




USA.gov is the U.S. government's official web portal to all federal, state and local government web resources and services.